{"data":{"norad_id":58425,"intl_designator":"2023-181A","name":"CHUANGXIN 20A (CX-20A)","alt_names":[],"object_type":"PAYLOAD","status":"ACTIVE","operator":null,"country":"PRC","launch_date":"2023-11-23","launch_site_code":"XICLF","launch_vehicle":null,"mission":null,"orbit_class":"UNKNOWN","rcs_meters":null,"size_class":null,"mass_kg":null,"dimensions":null,"purposes":[],"wikipedia_slug":null,"has_3d_model":false,"image_url":null,"decayed_at":null,"tle_current":{"epoch":"2026-05-25T04:32:43.933632Z","epoch_age_seconds":62641,"freshness":"FRESH","line1":"1 58425U 23181A   26145.18939738 -.00000082  00000+0  82265-4 0  9992","line2":"2 58425  49.9600  51.0517 0012878 197.6145 162.4287 13.41495320122661","mean_motion":13.4149532,"eccentricity":0.0012878,"inclination_deg":49.96,"raan_deg":51.0517,"arg_perigee_deg":197.6145,"mean_anomaly_deg":162.4287,"bstar":8.2265e-5,"rev_number":12266,"period_min":107.34290150189,"perigee_km":1094.0790732378,"apogee_km":1113.3493291917,"semimajor_km":7481.8512012147,"source":"CELESTRAK","updated_at":"2026-05-25T13:38:00.732806Z"}}}